Regional Weather Roundup
Issued by NWS

Home | Current Version | Previous Version | Graphics & Text | Print | Product List | Glossary On
Versions: 1 2 3 4 5 6 7 8 9 10 11 12 13 14 15 16 17 18 19 20 21 22 23 24 25 26 27 28 29 30 31 32 33 34 35 36 37 38 39 40 41 42 43 44 45 46 47 48 49 50
749
ASUS45 KABQ 242001
RWRNM
NEW MEXICO REGIONAL WEATHER ROUNDUP
NATIONAL WEATHER SERVICE ALBUQUERQUE NM
200 PM MDT THU MAY 24 2018

NOTE: "FAIR" MEANS FEW OR NO CLOUDS BELOW 12,000 FEET AGL WITH NO
       SIGNIFICANT WEATHER OR OBSTRUCTIONS TO VISION.

      THIS PRODUCT IS RELEASED AS TWO VERSIONS.  ONE VERSION NEAR
      THE TOP OF THE HOUR CONTAINING PRELIMINARY DATA FROM ALBUQUERQUE
      AND OTHER STATIONS.  A FINAL VERSION WITH ADDITIONAL DATA IS
      ISSUED ABOUT 10 MINUTES AFTER THE HOUR.

NMZ501-503-504-510>518-242100-
NORTHWEST PLATEAU/NORTHCENTRAL MOUNTAINS

CITY           SKY/WX    TMP DP  RH WIND       PRES   REMARKS
FARMINGTON     FAIR      82  10   6 W15       30.15F
LOS ALAMOS     FAIR      77  17  10 S12G24    30.28F
SANTA FE       FAIR      81  22  11 W14       30.23F
TAOS           FAIR      78  23  13 S13G21    30.28F
ANGEL FIRE     FAIR      69  26  19 W18G32    30.35F

$$
NMZ402-403-502-505>509-242100-
WESTCENTRAL MOUNTAINS/SOUTHWEST MOUNTAINS

CITY           SKY/WX    TMP DP  RH WIND       PRES   REMARKS
GALLUP         FAIR      79  19  10 SW13G22   30.24F
GRANTS         FAIR      80  20  11 CALM      30.24F
SILVER CITY    FAIR      84   8   5 S7G18     30.20F

$$
NMZ407-409-411-412-242100-
SOUTHERN DESERTS

CITY           SKY/WX    TMP DP  RH WIND       PRES   REMARKS
DEMING         FAIR      89  20   8 SW8       30.12F
LAS CRUCES     FAIR      90  19   7 W6        30.14F
HOLLOMAN AFB   FAIR      93  31  11 W8        30.12F
ALAMOGORDO     FAIR      90  32  12 S10G18    30.11F
T OR C         FAIR      91  13   5 S21G29    30.13F

$$
NMZ519>523-242100-
CENTRAL VALLEYS/CENTRAL HIGHLANDS

CITY           SKY/WX    TMP DP  RH WIND       PRES   REMARKS
ALBUQUERQUE    FAIR      82  26  13 VRB6G17   30.18F
DOUBLE EAGLE   MOSUNNY   81  27  13 SW16      30.22F
MORIARTY ARPT  FAIR      85  27  12 CALM      30.22F
CLINES CORNERS FAIR      79  30  16 W14G23    30.29F
BELEN          FAIR      84  20   9 NW3       30.17F
SOCORRO        FAIR      88  24   9 S8        30.13F

$$
NMZ524>526-539-540-242100-
SOUTHCENTRAL MOUNTAINS

CITY           SKY/WX    TMP DP  RH WIND       PRES   REMARKS
RUIDOSO        FAIR      75  45  33 SE17G23   30.30F

$$
NMZ527>531-242100-
NORTHEAST HIGHLANDS/NORTHEAST PLAINS

CITY           SKY/WX    TMP DP  RH WIND       PRES   REMARKS
LAS VEGAS      FAIR      80  22  11 SW24G30   30.24F
RATON          FAIR      80  40  23 S12G22    30.17F
CLAYTON        FAIR      81  53  37 SW17G26   30.10F

$$
NMZ532>537-242100-
EASTCENTRAL PLAINS

CITY           SKY/WX    TMP DP  RH WIND       PRES   REMARKS
SANTA ROSA     FAIR      87  32  14 SW15      30.11F
TUCUMCARI      FAIR      87  52  29 SW14      30.07F
CANNON AFB     FAIR      83  48  28 SW6G17    30.14F
CLOVIS AIRPORT FAIR      84  56  38 SW13G20   30.13F

$$
NMZ028-029-538-242100-
SOUTHEAST PLAINS

CITY           SKY/WX    TMP DP  RH WIND       PRES   REMARKS
ROSWELL        FAIR      87  52  29 SE7G18    30.08F
ARTESIA        FAIR      86  55  35 S8G15     30.09F
CARLSBAD       FAIR      86  56  35 VRB5      30.07F
HOBBS          SUNNY     86  55  35 SE9       30.11F


$$




USA.gov is the U.S. government's official web portal to all federal, state and local government web resources and services.